GFSSW_prec_cthk_276.txt.gz
RH
14 13 12 11 10 10 8 7 6 6 5 5 5 6 9 12 17 22 26 29 29 26 27 29 35 37 39 41 43 47 50 50 52 50 40 37 47 51 51 41 43 45 47 45 45
13 13 13 12 12 10 9 8 6 5 5 4 5 5 6 9 12 17 25 29 28 27 26 31 35 38 40 40 39 42 41 35 38 34 31 40 51 51 51 45 44 46 46 50 46
13 13 12 12 11 10 10 8 7 6 5 5 4 4 4 6 8 14 19 28 27 25 27 31 35 38 39 35 34 39 35 35 37 31 30 40 46 52 50 43 40 41 44 51 50
13 12 11 11 10 10 9 9 8 7 6 5 4 4 3 4 7 11 17 22 25 23 26 32 34 33 36 35 34 38 35 34 38 34 32 37 40 43 43 43 40 36 40 47 52
14 13 12 11 10 10 9 9 9 8 7 6 5 4 3 3 5 11 13 16 21 24 28 34 36 38 39 37 36 38 36 35 36 35 35 39 44 40 49 53 44 41 38 40 47
17 15 13 12 11 10 9 9 10 9 7 6 5 5 4 4 3 9 10 13 16 21 26 33 38 40 42 38 37 36 34 33 36 37 40 42 44 42 51 47 47 46 48 41 49
18 17 15 13 12 10 9 9 10 9 8 7 6 5 4 3 4 7 9 10 13 16 23 31 34 34 34 37 37 34 33 31 37 39 41 43 43 48 44 41 40 47 44 45 47
19 18 16 14 12 10 9 9 10 10 9 7 6 5 4 3 5 6 7 9 10 13 20 27 27 28 30 36 37 32 31 35 35 40 41 38 48 47 42 42 41 50 57 47 44
22 19 17 16 13 10 9 8 9 9 9 7 7 7 5 3 4 5 6 7 10 12 15 22 24 25 29 37 34 36 42 39 38 39 38 40 52 46 42 46 47 51 61 48 41
25 21 18 17 14 11 9 10 14 13 13 10 7 8 6 7 5 4 5 5 6 12 13 16 21 20 28 34 37 36 39 38 38 37 37 37 41 42 43 47 49 51 57 51 44
28 24 18 17 15 12 10 12 15 14 14 12 10 8 7 8 7 6 4 4 5 9 12 15 19 19 27 29 33 37 41 40 40 38 38 38 42 45 42 45 47 51 46 58 48
29 29 21 17 16 13 14 15 17 18 14 11 11 9 8 9 9 6 5 4 5 7 11 14 16 17 26 28 33 37 40 41 41 38 36 36 35 37 42 44 47 52 48 53 56
28 31 28 20 16 14 20 19 18 17 15 9 8 8 8 9 9 7 6 5 5 7 9 12 12 13 19 29 28 36 42 47 43 40 37 36 33 38 44 46 49 51 42 43 51
24 33 32 23 18 20 21 20 19 18 19 16 10 8 8 9 9 6 6 6 6 5 8 10 11 12 22 29 32 36 39 42 44 40 41 35 35 37 42 46 48 50 40 45 45
17 20 31 29 23 23 21 22 18 18 24 16 16 14 11 10 9 8 6 7 7 6 7 10 9 14 19 26 29 34 38 40 42 41 38 36 35 35 39 49 48 45 38 41 37
17 15 23 29 25 24 22 20 19 23 24 17 17 19 18 15 10 9 8 7 8 8 8 8 11 15 17 23 30 33 37 37 41 40 44 40 40 38 40 40 46 40 38 41 41
17 15 19 28 26 23 19 22 25 30 23 24 23 20 18 13 11 10 10 9 9 9 10 10 11 15 17 22 26 28 38 47 46 43 43 41 41 36 36 39 41 39 37 39 42
16 14 15 25 26 25 22 25 31 27 28 28 25 24 22 16 10 10 10 10 10 10 11 13 13 17 18 20 25 30 34 45 47 50 44 42 39 34 32 30 37 40 42 42 43
15 13 13 23 25 25 25 32 28 31 29 29 28 25 22 19 17 13 11 11 11 11 10 13 14 19 19 21 24 28 33 35 46 48 44 40 35 33 36 33 36 44 44 45 47
16 19 22 25 25 24 27 31 24 32 30 30 33 31 28 23 23 18 15 11 11 11 9 11 15 15 21 22 20 24 28 34 42 47 42 41 37 37 37 35 40 40 49 50 50
20 29 25 27 27 27 30 31 21 28 28 31 29 29 28 29 25 22 18 16 12 12 12 10 14 18 20 23 23 26 24 33 38 43 43 43 40 37 36 40 47 50 59 58 63
26 34 29 34 33 31 32 28 22 28 31 32 27 27 27 29 28 26 25 20 15 14 14 12 15 21 20 21 21 23 27 27 37 38 39 41 41 39 38 41 48 50 51 54 56
28 34 33 34 38 37 35 32 30 33 36 34 30 27 27 29 28 27 29 25 23 17 16 15 17 19 21 21 23 27 27 28 29 35 37 42 39 37 36 43 47 47 46 46 56
28 41 39 36 36 38 38 36 33 32 36 36 32 27 28 29 30 31 35 28 26 22 18 16 17 17 21 22 26 26 29 32 30 35 36 40 37 40 39 42 49 52 48 48 55
32 43 42 43 41 41 41 39 41 39 37 37 32 27 27 28 32 37 35 30 28 27 20 16 16 15 19 22 25 25 29 31 34 32 36 35 36 35 38 40 45 40 40 47 50
34 44 45 44 45 46 47 47 45 43 43 43 40 35 27 24 30 35 36 35 32 31 29 26 17 16 15 21 23 25 28 32 32 30 32 38 39 36 38 39 41 44 43 47 44
39 40 47 45 48 48 49 47 47 44 44 47 47 42 29 27 28 32 33 32 33 38 39 37 32 26 19 17 19 23 27 35 32 32 33 35 32 34 35 34 38 41 44 38 35

GFSSW_prec_cthk_279.txt.gz
RH
13 12 11 11 10 9 9 8 7 6 5 5 4 5 7 11 15 20 25 31 31 31 33 34 36 41 39 46 47 48 43 45 42 43 45 47 48 48 48 45 39 40 47 47 49
13 12 12 11 10 10 9 8 7 6 5 5 4 4 5 8 11 17 28 29 29 30 32 34 37 39 42 47 45 43 44 38 37 36 38 41 43 42 44 42 40 40 48 50 49
13 12 11 11 10 10 9 8 8 7 6 5 4 4 4 5 8 14 20 26 28 29 31 34 35 37 45 46 45 40 41 36 35 35 35 34 41 44 46 52 38 35 37 49 50
13 12 12 11 10 9 8 8 8 7 6 5 4 4 3 4 6 11 17 23 26 28 32 34 36 36 42 41 37 37 37 36 35 37 38 37 40 44 47 49 35 36 32 39 50
15 14 12 11 10 9 8 8 8 8 7 6 5 4 4 3 4 11 15 20 22 25 30 33 36 35 40 35 33 35 36 38 36 37 39 38 40 44 44 45 46 45 37 41 49
18 16 14 12 11 9 8 8 8 8 8 7 6 5 4 4 2 7 11 16 19 21 27 30 33 32 34 33 34 32 37 40 41 37 38 42 38 42 43 42 47 44 43 45 50
20 18 16 15 12 10 9 8 8 9 8 7 6 6 5 3 3 6 9 12 15 19 24 27 30 30 33 38 34 31 39 41 42 39 40 40 41 40 46 48 45 48 44 38 46
22 20 18 16 14 11 9 8 8 9 8 8 6 5 4 3 3 5 7 11 13 18 23 26 27 30 34 34 34 33 36 41 41 40 42 35 38 39 44 48 39 47 46 42 35
25 22 19 16 15 12 10 8 9 10 10 9 7 6 4 4 4 5 5 8 10 12 20 23 25 29 32 33 39 35 38 42 46 45 43 41 43 39 41 45 47 48 51 48 34
26 23 20 18 16 13 10 10 14 12 12 11 9 7 5 7 6 5 5 7 8 10 15 20 23 26 30 36 43 36 37 41 45 46 46 44 42 42 41 43 49 45 47 48 39
24 24 22 19 16 14 11 13 14 13 12 11 10 7 8 7 7 5 5 5 6 8 12 15 21 23 29 35 42 37 36 42 41 44 45 43 40 40 43 45 45 47 50 52 51
23 22 25 21 16 14 16 18 18 19 15 10 9 9 8 9 9 7 6 5 4 6 9 13 15 15 21 28 41 32 36 41 40 43 38 44 41 41 42 44 46 46 49 53 58
22 23 27 27 17 14 20 19 19 18 16 9 9 9 9 9 9 7 6 5 4 5 8 11 12 13 15 24 32 32 42 41 44 41 41 42 41 39 42 45 47 44 48 49 54
19 21 28 29 21 18 20 19 19 17 19 15 10 8 8 9 9 7 7 6 5 5 8 9 10 11 15 26 26 36 41 37 42 41 45 41 44 39 44 42 46 46 46 47 48
19 17 18 30 27 22 22 21 20 18 21 17 15 13 10 10 9 9 7 7 7 6 6 8 9 12 16 20 26 36 35 35 38 44 45 43 42 35 44 43 45 47 43 42 45
18 16 14 21 26 25 23 21 19 23 19 19 19 20 18 14 12 10 8 7 8 8 8 6 9 11 12 19 25 36 35 35 40 44 47 43 43 38 37 38 45 46 45 42 47
15 15 14 17 24 26 22 21 24 29 23 25 22 20 20 16 13 12 10 9 9 9 8 7 7 9 12 20 25 29 36 44 47 46 46 42 44 36 34 34 36 39 39 40 43
17 14 12 15 22 25 23 23 28 25 31 26 24 22 20 18 13 11 10 11 10 10 10 10 9 10 13 21 31 33 31 39 44 47 43 42 42 33 30 34 34 33 36 41 43
18 14 13 15 22 25 25 29 23 32 31 26 26 24 23 21 16 14 14 13 10 10 11 11 10 12 17 25 29 28 31 30 42 43 45 44 37 34 33 35 35 35 34 39 45
18 21 21 18 24 24 28 29 24 33 33 29 30 26 27 24 21 19 15 13 12 11 11 10 10 15 19 20 25 26 28 34 39 42 44 42 36 38 36 38 38 37 36 36 41
22 28 26 26 25 25 28 31 23 27 28 32 34 30 30 27 25 21 18 17 14 14 13 11 11 15 20 22 25 26 30 33 34 39 44 43 38 35 35 37 39 38 34 35 39
27 33 29 27 29 31 31 30 25 22 31 35 36 32 32 28 26 24 23 24 24 17 14 15 12 17 20 23 22 21 23 29 36 35 40 38 34 34 34 37 36 35 33 38 48
29 33 34 35 38 38 36 36 33 27 35 35 36 34 32 30 28 27 29 27 31 23 16 16 16 18 21 22 22 24 26 29 31 36 41 40 36 38 37 35 38 35 33 41 44
33 38 37 37 38 40 39 36 36 32 36 37 33 33 32 30 29 29 34 32 32 32 23 19 17 15 19 21 23 24 25 26 30 36 38 38 33 36 35 38 40 38 38 44 50
30 43 43 40 38 39 40 41 42 39 37 41 39 39 37 31 32 33 34 35 33 35 31 23 17 17 16 19 23 23 25 29 32 35 37 34 38 35 37 40 40 40 42 45 46
32 42 44 43 44 42 41 42 42 42 41 45 45 42 37 31 26 30 34 35 35 34 33 31 28 22 17 19 23 23 23 25 28 32 34 34 36 35 36 40 42 42 42 43 40
34 38 45 46 46 46 45 44 43 43 42 42 46 44 40 39 34 33 38 37 39 36 36 35 35 33 29 22 21 23 22 22 26 30 33 38 33 37 39 38 37 37 38 38 39

GFSSW_prec_cthk_285.txt.gz
RH
12 11 11 10 10 9 8 8 8 7 6 5 4 4 5 10 15 24 31 31 33 34 36 38 40 38 39 38 38 35 35 36 37 42 43 43 50 52 50 48 41 46 54 48 41
13 12 11 10 10 9 8 8 8 7 6 5 4 4 4 7 11 19 27 29 31 32 34 37 37 35 36 37 37 33 32 30 34 39 42 43 49 52 53 52 46 48 48 48 46
14 13 12 11 10 9 9 8 7 7 7 6 5 4 3 4 9 14 23 27 30 31 34 33 38 38 37 35 35 33 29 28 34 37 38 44 47 52 52 49 45 46 51 50 46
16 15 14 12 11 10 9 8 7 7 6 6 5 4 3 4 7 11 20 25 29 30 32 30 38 38 39 36 35 32 27 30 34 35 38 42 47 50 50 47 46 40 46 47 43
19 17 15 14 12 10 9 8 7 7 6 6 6 5 4 3 4 10 16 21 26 29 30 29 36 38 38 37 36 34 31 30 32 34 37 41 44 50 53 48 49 44 41 40 42
20 19 17 16 14 12 10 9 8 7 6 6 6 6 5 4 3 6 12 17 21 26 28 29 34 37 38 38 36 35 34 33 34 35 37 40 44 49 55 55 55 54 45 38 40
21 20 19 17 15 13 12 10 8 6 6 6 7 6 5 4 3 3 9 14 18 23 25 28 32 34 36 36 37 35 36 33 35 34 36 39 44 46 51 56 57 57 54 46 40
23 21 20 18 16 14 13 11 8 7 7 7 7 6 5 4 3 3 7 12 16 20 23 27 29 30 33 36 37 38 35 30 32 34 38 40 40 44 48 53 56 59 56 50 46
23 22 20 17 16 15 12 11 9 9 9 10 9 8 6 5 4 4 7 11 14 17 21 24 27 27 31 36 36 39 36 30 29 36 39 39 40 43 47 50 54 56 59 52 46
19 20 19 18 18 15 12 12 11 11 10 10 10 10 7 7 5 5 6 10 12 14 17 22 25 25 27 34 39 39 38 34 31 34 40 38 36 40 44 47 48 53 55 51 47
18 18 19 18 20 16 13 13 13 13 12 11 10 8 8 8 7 5 6 8 10 12 14 17 21 22 24 29 36 35 39 41 32 34 39 40 32 37 42 45 47 48 51 53 47
17 17 18 19 21 18 14 15 16 17 14 11 10 9 8 9 9 6 6 6 7 10 11 14 15 19 23 26 34 35 36 38 39 35 39 39 32 35 38 41 43 46 50 51 48
16 15 17 19 24 21 17 16 17 17 17 12 10 10 8 8 8 7 6 6 6 8 9 11 14 16 22 27 33 32 36 37 36 39 36 37 32 34 37 38 40 42 46 47 45
15 14 14 16 26 23 20 17 17 17 16 13 11 10 10 9 9 8 7 7 6 6 7 8 12 14 19 22 31 28 34 35 34 34 37 37 35 32 34 36 39 37 40 43 45
16 14 13 13 23 27 23 20 18 17 17 15 13 11 10 9 8 9 8 7 7 6 6 6 8 11 13 17 22 22 30 29 32 36 39 42 37 34 35 28 30 33 36 40 41
17 15 14 13 14 25 26 23 19 16 20 18 17 14 12 11 10 10 10 8 8 8 7 7 8 9 11 14 16 16 21 29 33 32 40 41 40 35 31 27 25 29 33 39 41
19 18 14 12 14 22 24 25 19 16 21 22 20 20 16 13 13 11 11 10 9 10 9 8 7 8 9 10 13 14 15 24 37 35 37 41 40 34 31 28 27 28 31 37 38
20 19 17 14 13 20 24 24 20 19 26 24 23 22 19 16 14 14 12 11 10 10 10 10 9 7 8 9 12 14 16 27 39 36 37 37 36 30 29 30 29 28 31 35 37
21 21 21 17 15 22 23 21 17 25 24 23 25 24 21 17 14 14 14 13 12 11 11 12 11 10 7 9 11 17 22 26 30 33 32 33 29 24 29 30 29 30 32 34 35
22 27 24 17 19 25 23 21 22 28 24 25 29 27 25 21 17 17 18 15 14 13 12 13 12 11 10 10 13 16 26 28 32 37 38 33 29 20 29 29 30 29 31 32 36
26 31 26 21 26 27 24 23 20 24 24 26 29 29 27 25 22 21 21 22 22 19 14 13 12 12 12 12 14 18 22 27 28 34 33 31 24 21 27 27 29 30 33 32 35
29 31 32 30 28 29 27 26 25 24 28 27 30 30 29 26 24 23 25 25 26 22 17 15 12 13 12 13 15 19 21 24 27 32 34 31 23 21 26 27 30 32 32 34 37
33 34 33 33 33 33 33 32 31 28 31 28 31 30 29 30 28 25 26 28 29 23 18 17 14 14 13 15 16 17 20 24 27 29 33 29 23 23 24 26 31 32 30 32 33
36 35 35 35 38 36 35 35 34 33 31 32 33 36 35 30 29 28 29 29 30 31 27 20 17 17 15 16 17 21 22 27 29 32 31 29 23 22 23 25 27 28 30 30 33
36 39 38 37 37 38 37 36 35 37 35 36 36 39 40 38 31 32 33 32 32 34 31 28 26 21 18 16 18 20 25 27 28 28 29 28 30 25 26 29 26 26 28 31 37
36 41 41 40 40 39 39 39 38 39 39 39 41 40 40 40 42 37 36 37 36 36 37 38 36 32 27 20 19 20 23 25 25 27 26 25 25 23 25 31 32 29 29 32 37
36 39 43 41 39 39 39 39 39 41 42 42 42 43 43 44 43 42 39 39 40 40 38 36 38 40 33 28 21 20 19 22 22 22 21 23 21 25 26 29 33 31 33 34 37

GFSSW_prec_cthk_291.txt.gz
RH
12 11 10 10 9 8 8 7 6 6 6 5 5 4 4 8 17 23 28 24 28 31 29 32 35 35 33 36 32 49 47 38 43 46 45 47 49 43 43 45 48 51 55 47 42
14 13 12 11 10 9 8 7 6 6 6 5 5 4 4 6 11 20 21 26 29 28 29 30 30 33 37 37 34 43 37 39 40 45 44 45 48 48 45 41 49 51 47 46 46
15 14 13 13 11 10 9 8 7 6 6 5 5 4 3 3 9 16 20 24 27 28 28 28 28 32 45 38 37 34 38 41 39 36 44 44 48 49 52 50 40 44 43 39 44
15 14 14 13 12 11 10 8 7 6 6 5 5 4 3 3 9 9 16 22 25 28 29 29 28 34 42 38 33 41 38 37 36 36 39 42 44 49 48 46 46 39 37 40 44
16 15 14 13 12 12 10 9 8 7 6 5 5 5 3 5 7 7 10 18 23 26 26 27 29 41 40 38 35 37 39 35 34 37 39 38 42 46 45 47 48 44 38 36 41
17 16 15 14 13 12 11 9 8 7 6 5 5 5 5 6 4 5 8 15 21 25 26 26 33 41 42 39 37 35 36 37 35 35 36 38 38 45 45 47 48 47 44 39 38
17 17 16 15 14 12 11 10 9 7 6 5 5 6 6 7 4 4 7 12 19 22 25 26 33 31 36 38 33 33 38 35 34 35 39 40 51 41 42 44 47 49 47 44 36
15 15 16 15 14 12 12 11 9 8 6 6 6 6 8 5 4 4 6 9 15 19 23 30 27 27 39 40 31 34 34 37 48 31 33 36 73 37 39 43 46 49 51 45 41
17 15 14 15 14 12 13 11 9 9 8 8 8 9 10 5 3 4 4 8 13 19 23 19 21 26 32 32 38 36 36 37 38 28 38 35 49 38 42 43 44 47 50 51 44
16 16 15 14 15 14 15 10 10 9 9 8 8 9 8 6 7 6 5 8 11 16 18 21 24 29 31 37 35 39 33 33 34 39 32 38 42 50 40 44 44 44 47 51 47
15 15 15 14 15 18 17 13 18 18 12 15 16 11 10 9 7 5 5 6 10 12 14 18 25 25 29 35 34 35 35 33 35 31 30 38 40 45 47 40 43 44 46 48 49
14 13 13 11 13 21 19 20 16 19 13 12 11 11 12 10 9 7 6 7 8 9 13 20 19 22 31 34 33 31 36 32 32 33 28 33 39 39 47 39 38 42 45 46 51
13 12 12 11 15 23 24 18 14 14 16 15 11 11 10 8 10 8 6 8 9 10 11 15 19 16 22 31 33 35 34 32 39 37 29 28 31 36 37 34 36 39 40 42 47
15 13 12 12 17 25 24 17 15 16 20 17 12 12 10 8 10 9 6 8 9 10 12 12 12 16 17 22 25 31 30 31 35 36 30 33 31 38 45 39 33 36 39 40 42
15 14 13 11 13 26 26 18 16 18 27 19 13 12 10 9 11 8 7 8 8 6 8 9 8 11 12 14 16 21 27 29 36 33 31 28 26 25 40 40 40 43 40 38 42
16 16 14 12 12 19 23 20 18 18 28 18 11 10 9 11 9 10 6 7 7 7 6 7 7 7 8 10 13 16 24 30 33 29 27 25 25 25 30 56 35 41 39 37 41
20 17 17 14 19 15 22 22 22 23 22 16 13 10 10 10 9 9 8 7 7 8 8 7 6 7 6 9 13 15 18 26 27 27 23 22 22 28 28 35 36 37 34 38 37
20 19 17 16 15 18 22 24 26 19 22 18 16 12 12 11 11 10 10 9 8 9 11 12 11 8 7 7 11 15 14 20 24 20 16 18 23 27 25 30 27 29 36 37 40
21 23 24 21 15 20 24 24 21 22 23 18 18 17 17 15 14 13 13 13 11 9 10 12 12 11 8 7 7 13 15 13 13 12 13 19 45 36 28 27 28 31 39 40 37
23 29 27 20 18 22 25 28 21 23 19 19 23 22 20 17 15 14 15 14 12 11 10 15 15 14 11 8 8 9 16 16 14 17 18 17 23 21 28 28 27 30 38 41 46
27 34 27 20 21 24 24 25 20 21 19 23 28 24 27 22 17 15 21 17 14 14 10 11 13 17 12 10 9 9 10 13 17 15 16 19 21 26 29 26 27 32 33 42 44
30 39 28 23 27 26 26 25 20 20 20 23 24 29 30 23 23 22 24 33 21 21 13 13 15 15 16 15 11 12 14 13 20 22 22 25 25 28 30 24 24 26 33 42 36
37 36 28 26 34 30 27 25 23 21 24 24 25 26 27 27 29 26 30 29 20 20 23 20 14 15 17 14 13 11 14 17 15 16 21 23 26 24 22 23 24 25 36 41 35
37 39 32 28 34 35 32 27 27 23 27 26 29 28 29 29 29 32 31 30 25 29 20 18 18 17 16 20 20 19 15 13 16 17 18 19 16 19 26 27 27 37 41 39 38
37 43 41 34 31 29 35 36 31 32 24 25 28 30 33 37 35 33 30 35 27 28 26 23 24 26 23 23 22 18 16 18 17 17 17 17 27 31 28 26 34 39 34 34 41
44 42 35 38 38 35 35 35 34 32 34 28 29 29 33 37 44 39 33 33 35 40 28 31 29 31 34 31 28 26 19 15 16 19 21 20 23 26 24 24 30 43 37 38 44
40 35 38 42 33 31 35 34 35 37 34 41 34 39 34 44 42 41 37 42 42 46 39 39 35 36 34 33 33 33 27 19 16 17 20 21 23 21 23 24 26 34 37 41 44